Location: St. Louis
(38.6270°N, 90.1994°W)
Time: 01:30:44
(UTC-06:00)

Courier 1B Rocket - Pass Details

Date: 08 December 2021
Orbit: 920 x 1202 km, 28.2° (Epoch: 16 January)

Event Time Altitude Azimuth Distance (km) Brightness Sun altitude
Rises 01:58:47 0° 258° (WSW) 3,576 - -58.8°
Reaches altitude 10° 02:02:41 10° 235° (SW) 2,608 - -58.1°
Maximum altitude 02:05:55 15° 203° (SSW) 2,284 - -57.5°
Drops below altitude 10° 02:09:09 10° 171° (S) 2,602 - -56.9°
Sets 02:13:02 0° 149° (SSE) 3,561 - -56.2°
